Location: Aldenham
(51.6667°N, 0.3500°W)
Time: 06:02:35
(UTC+00:00)

Altair - Pass Details

Date: 24 February 2026
Orbit: 1502 x 1682 km, 47.2° (Epoch: 5 March)

Event Time Altitude Azimuth Distance (km) Brightness Sun altitude
Rises 08:40:44 0° 285° (WNW) 4,677 9.5 13.7°
Reaches altitude 10° 08:43:57 10° 278° (W) 3,712 9.0 14.1°
Maximum altitude 08:52:25 40° 213° (SSW) 2,173 8.6 15.1°
Drops below altitude 10° 09:01:10 10° 149° (SSE) 3,828 11.3 16.2°
Sets 09:04:34 0° 142° (SE) 4,837 11.8 16.6°
